Location: Newark
(9.4667°S, 159.8167°E)
Time: 05:36:49
(UTC+00:00)

Transit 4A - Visible Passes

Search period start: 18 November 2019 00:00
Search period end: 28 November 2019 00:00
Orbit: 868 x 976 km, 66.8° (Epoch: 17 November)

Date Brightness Start Highest point End Pass type
(mag) Time Alt. Az. Time Alt. Az. Time Alt. Az.
18 Nov 8.3 09:42:07 10° SSW 09:47:32 64° SW 09:47:32 64° SW visible
19 Nov 9.5 08:07:39 10° SSE 08:11:29 16° ESE 08:13:49 14° E visible
19 Nov 8.7 09:51:41 10° SW 09:57:23 47° W 09:57:23 47° W visible
20 Nov 9.0 08:15:35 10° S 08:20:54 28° ESE 08:23:44 20° ENE visible
20 Nov 9.5 10:01:42 10° SW 10:07:02 28° WNW 10:07:19 28° WNW visible
21 Nov 8.3 08:24:11 10° S 08:30:17 46° ESE 08:33:44 24° NE visible
21 Nov 10.1 10:12:28 10° WSW 10:16:16 16° WNW 10:17:18 16° WNW visible
22 Nov 7.9 08:33:11 10° SSW 08:39:36 76° ESE 08:43:47 23° NNE visible
23 Nov 8.3 08:42:32 10° SSW 08:48:54 66° WNW 08:53:53 17° N visible
24 Nov 9.2 08:52:16 10° SW 08:58:09 39° WNW 09:03:58 10° N visible
25 Nov 10.0 09:02:29 10° WSW 09:07:23 23° WNW 09:12:14 10° NNW visible
26 Nov 10.5 09:13:48 10° W 09:16:37 13° WNW 09:19:25 10° NW visible
